Location: Cambroso
(45.2833°N, 12.0850°E)
Time: 17:03:36
(UTC+00:00)

ERS-2 - Pass Details

Date: 21 January 2021
Orbit: 492 x 497 km, 98.6° (Epoch: 26 February)

Event Time Altitude Azimuth Distance (km) Brightness Sun altitude
Exits shadow 17:20:14 13° 29° (NNE) 1,512 4.2 -13.4°
Maximum altitude 17:23:16 44° 100° (E) 688 2.4 -13.9°
Drops below altitude 10° 17:26:45 10° 174° (S) 1,681 4.9 -14.5°
Sets 17:28:52 0° 181° (S) 2,557 5.9 -14.9°
